Terug naar catalogus

STARLINK-30798

ActiefCommunicatieVLEO
NORAD 58196·PAYLOAD·🇺🇸 United States

Gelanceerd Oct 30, 2023 vanaf Cape Canaveral Space Force Station

Loading…

Volgende Passages (komende 24 uur)

TLE

VersSource: CelesTrak SupGP

Epoch: Sep 15, 2026, 02:51 UTC

1 58196C 23167X   26258.11923611  .00063864  00000+0  23126-2 0  2585
2 58196  43.0008 153.7879 0001497 274.9299  87.4304 15.27554051    11

Volg STARLINK-30798 in realtime met AllMySat

Download on the App Store